sat.trackr.live / text

‹ back to catalog

STARLINK-34595

NORAD 64749 · 2025-144AB

PAYLOAD ACTIVE UNKNOWN

§ Identity

Operator
Country
US
Launch date
2025-07-02
Launch site
AFETR
Launch vehicle
Mass (kg)
RCS (m²)

Purposes: comms

External: N2YO · Heavens-Above · Gunter

§ Orbital elements

Epoch: 2026-09-20T17:21:54.739872Z

Period
93.85 min
Inclination
53.1623°
Eccentricity
0.0001518
Mean motion
15.34407144 rev/d
Perigee alt
461.6 km
Apogee alt
463.7 km
Semi-major
6,840.8 km
B*
4.2036e-4
RAAN
354.3264°
Arg perigee
58.0897°
Mean anomaly
302.0253°
Rev number
6,958

§ Raw data

STARLINK-345951 64749U 25144AB  26263.72355023  .00013856  00000+0  42036-3 0  99922 64749  53.1623 354.3264 0001518  58.0897 302.0253 15.34407144 69587

JSON: /api/v1/satellites/64749 · /tle

For live sub-satellite position, see the globe view (requires WebGL).

§ Visibility from observer

Set your observer location to see the next 7 days of passes ≥ 10°. The values pass through the URL so the page stays shareable.

No JS? Fill the form by hand. The geolocation button needs JavaScript.